DW7857 Weather Reports


Display with metric or nautical units.
time (UTC)temp
F
wind
direction
speed
MPH
gust
MPH
rain 1hr
in
rain 24hr
in
rain mn
in
humidity
%
barometer
mb
20260904004503 66 180 11.0 11.0 0.00 1.96 0.00 88 1011.5
20260904003603 66 180 11.0 11.0 7.75 1.96 0.00 88 1011.5
20260904002703 66 180 11.0 11.0 7.75 1.96 0.00 88 1011.5
20260904001803 66 180 11.0 11.0 7.75 1.96 0.00 88 1011.5
20260904000903 66 180 11.0 11.0 7.75 1.96 0.00 88 1011.5
20260904000003 66 180 11.0 11.0 7.75 1.96 0.00 88 1011.5
20260903235618 66 180 11.0 11.0 7.75 1.96 0.00 88 1011.5
20260903234503 66 180 7.0 11.0 7.75 1.96 0.00 88 1011.5
20260903233603 66 180 8.0 12.0 0.00 1.18 0.00 88 1011.5
20260903232703 66 180 11.0 11.0 0.00 1.18 0.00 88 1011.5
20260903231803 66 180 11.0 11.0 0.00 1.18 0.00 88 1011.5
20260903230903 66 180 11.0 11.0 0.00 1.18 0.00 88 1011.5
20260903230003 66 180 11.0 11.0 0.00 1.18 0.00 88 1011.5
20260903225403 66 180 11.0 11.0 0.00 1.18 0.00 88 1011.5
20260903224716 66 180 11.0 11.0 0.00 1.18 0.00 88 1011.5
20260903223818 66 180 11.0 11.0 0.00 1.18 0.00 88 1011.5
20260903222703 66 180 11.0 11.0 0.00 1.18 0.00 88 1011.5
20260903221803 66 180 11.0 11.0 0.00 1.18 0.00 88 1011.5
20260903221118 66 180 11.0 11.0 0.00 1.18 0.00 88 1011.5
20260903220003 66 180 11.0 11.0 0.00 1.18 0.00 88 1011.5
20260903215403 66 179 11.0 11.0 0.00 1.18 0.00 88 1011.5
20260903214503 66 180 11.0 11.0 0.00 1.18 0.00 88 1011.5
20260903213603 66 180 11.0 11.0 0.00 1.18 0.00 88 1011.5
20260903212703 66 181 11.0 11.0 7.75 1.18 0.00 88 1011.5
20260903211803 66 183 8.0 11.0 7.75 1.18 0.00 88 1011.5
20260903210903 67 180 8.0 8.0 7.75 1.18 0.00 83 1012.1
20260903210003 67 180 8.0 8.0 8.78 1.18 0.00 83 1012.1
20260903205616 67 180 8.0 8.0 9.80 1.18 0.00 83 1012.1
20260903204503 67 180 8.0 18.0 9.80 1.18 0.00 83 1012.1
20260903203603 67 182 7.0 54.0 9.80 1.18 0.00 83 1012.1
20260903202703 91 233 6.0 9.0 2.06 4.11 0.00 79 1012.2
20260903201803 67 290 6.0 8.0 2.06 4.11 0.00 83 1012.5
20260903201117 67 194 5.0 13.0 2.06 4.11 0.00 83 1012.2
20260903200003 72 360 9.0 13.0 1.03 3.08 0.00 57 1014.0
20260903195403 67 177 4.0 4.0 0.00 2.06 0.00 83 1012.2
20260903194717 68 180 4.0 4.0 0.00 2.06 0.00 82 1012.4
20260903193603 68 315 4.0 4.0 2.06 2.06 0.00 81 1012.5
20260903192703 68 137 5.0 8.0 2.06 2.06 0.00 81 1012.4
20260903191803 68 171 5.0 8.0 2.06 2.06 0.00 79 1012.2
20260903190903 69 353 6.0 10.0 2.06 2.06 0.00 73 1012.7
20260903190003 70 318 7.0 10.0 2.06 2.06 0.00 73 1012.6
20260903185618 69 311 7.0 10.0 2.06 2.06 0.00 75 1012.5
20260903184503 69 144 6.0 8.0 2.06 2.06 0.00 81 1012.9
20260903183816 69 164 6.0 8.0 0.00 0.00 0.00 82 1012.7
20260903182703 69 212 6.0 9.0 0.00 0.00 0.00 82 1012.5
20260903181803 70 199 6.0 8.0 0.00 0.00 0.00 81 1012.9
20260903180903 70 186 7.0 9.0 0.00 0.00 0.00 80 1012.6
20260903180003 71 200 7.0 8.0 0.00 0.00 0.00 78 1012.2
20260903175403 71 219 8.0 10.0 0.00 0.00 0.00 77 1012.3
20260903174503 72 181 7.0 11.0 0.00 0.00 0.00 77 1012.4
20260903173818 72 196 7.0 11.0 0.00 0.00 0.00 77 1012.7
20260903172703 72 201 7.0 9.0 0.00 0.00 0.00 75 1012.6
20260903171803 73 230 7.0 11.0 0.00 0.00 0.00 73 1012.2
20260903170903 73 182 6.0 11.0 0.00 0.00 0.00 73 1012.5
20260903170003 73 178 7.0 12.0 0.00 0.00 0.00 72 1012.5
20260903165403 73 191 6.0 8.0 0.00 0.00 0.00 73 1012.5
20260903164503 73 173 6.0 11.0 0.00 0.00 0.00 72 1012.6
20260903163603 76 180 6.0 6.0 0.00 0.00 0.00 66 1013.1
20260903162703 76 180 6.0 6.0 0.00 0.00 0.00 66 1013.1
20260903161803 76 180 6.0 6.0 0.00 0.00 0.00 66 1013.1
20260903160903 76 192 6.0 7.0 0.00 0.00 0.00 66 1013.1
20260903160003 77 275 6.0 8.0 0.00 0.00 0.00 66 1013.0
20260903155617 78 312 7.0 8.0 0.00 0.00 0.00 66 1012.8
20260903154503 80 315 8.0 8.0 0.00 0.00 0.00 55 1013.1
20260903153603 80 275 9.0 10.0 0.00 0.00 0.00 55 1013.1
20260903152703 79 283 8.0 10.0 0.00 0.00 0.00 55 1013.1
20260903152018 79 173 6.0 9.0 0.00 0.00 0.00 55 1013.0
20260903151117 78 185 5.0 6.0 0.00 0.00 0.00 59 1013.4
20260903150003 78 264 7.0 11.0 0.00 0.00 0.00 56 1013.4
20260903145403 78 237 5.0 8.0 0.00 0.00 0.00 60 1013.2
20260903144717 77 214 7.0 8.0 0.00 0.00 0.00 59 1013.4
20260903143603 78 246 9.0 13.0 0.00 0.00 0.00 58 1013.3
20260903142703 78 274 8.0 13.0 0.00 0.00 0.00 57 1013.6
20260903141803 77 307 7.0 11.0 0.00 0.00 0.00 60 1013.6
20260903140903 77 303 8.0 11.0 0.00 0.00 0.00 60 1013.6
20260903140003 77 314 9.0 15.0 0.00 0.00 0.00 59 1013.6
20260903135403 77 337 8.0 12.0 0.00 0.00 0.00 60 1013.6
20260903134503 76 322 8.0 10.0 0.00 0.00 0.00 61 1013.6
20260903133603 77 254 9.0 13.0 0.00 0.00 0.00 60 1013.7
20260903132918 77 262 9.0 15.0 0.00 0.00 0.00 59 1013.6
20260903131803 77 256 8.0 11.0 0.00 0.00 0.00 60 1013.8
20260903130903 77 271 8.0 10.0 0.00 0.00 0.00 61 1013.5
20260903130003 76 269 6.0 10.0 0.00 0.00 0.00 63 1013.8
20260903125403 76 269 6.0 10.0 0.00 0.00 0.00 66 1013.5
20260903124503 76 70 5.0 8.0 0.00 0.00 0.00 69 1013.5
20260903123603 76 189 5.0 8.0 0.00 0.00 0.00 71 1013.5
20260903122703 75 188 3.0 5.0 0.00 0.00 0.00 75 1013.9
20260903121803 73 181 4.0 7.0 0.00 0.00 0.00 74 1013.8
20260903120903 73 206 4.0 7.0 0.00 0.00 0.00 73 1013.9
20260903120003 74 192 5.0 8.0 0.00 0.00 0.00 73 1013.7
20260903115617 74 248 6.0 8.0 0.00 0.00 0.00 73 1013.7
20260903114503 73 263 3.0 6.0 0.00 0.01 0.00 73 1013.9
20260903113603 72 10 2.0 4.0 0.00 0.02 0.00 76 1013.9
20260903112703 71 353 4.0 8.0 0.00 0.02 0.00 80 1013.8
20260903112016 71 326 6.0 8.0 0.00 0.02 0.00 78 1013.9
20260903110903 72 315 6.0 8.0 0.00 0.02 0.00 76 1013.8
20260903110003 72 325 6.0 8.0 0.00 0.02 0.00 74 1013.8
20260903105403 72 314 8.0 13.0 0.00 0.02 0.00 70 1013.8
20260903104718 73 243 8.0 13.0 0.00 0.02 0.00 70 1013.9
20260903103603 74 292 5.0 8.0 0.00 0.02 0.00 68 1014.0
20260903102703 74 246 5.0 8.0 0.00 0.02 0.00 69 1013.7
20260903101803 74 268 5.0 8.0 0.00 0.02 0.00 71 1013.7
20260903100903 73 32 5.0 9.0 0.00 0.02 0.00 73 1013.8
20260903100003 72 341 6.0 9.0 0.00 0.02 0.00 75 1013.7
20260903095403 72 323 4.0 7.0 0.00 0.02 0.00 76 1013.9
20260903094718 72 276 4.0 6.0 0.00 0.02 0.00 76 1013.8
20260903093603 71 203 5.0 9.0 0.00 0.02 0.00 77 1013.8
20260903092703 71 185 4.0 6.0 0.00 0.02 0.00 78 1013.9
20260903092018 70 335 4.0 7.0 0.00 0.02 0.00 79 1013.9
20260903090903 69 179 6.0 9.0 0.00 0.02 0.00 80 1014.0